Location: Poughquag
(41.6090°N, 73.6820°W)
Time: 01:23:04
(UTC-04:00)

Altair - Pass Details

Date: 01 June 2020
Orbit: 1501 x 1683 km, 47.2° (Epoch: 06 July)

Event Time Altitude Azimuth Distance (km) Brightness Sun altitude
Rises 04:30:19 0° 297° (WNW) 4,935 9.9 -8.8°
Reaches altitude 10° 04:33:30 10° 295° (WNW) 3,949 9.4 -8.3°
Maximum altitude 04:43:36 71° 214° (SW) 1,749 7.7 -6.9°
Drops below altitude 10° 04:53:30 10° 133° (SE) 3,876 9.8 -5.4°
Sets 04:56:36 0° 131° (SE) 4,840 10.3 -4.9°
